User: anonymous   Login
Location: Unspecified
(0.0000°N, 0.0000°E)
Time: 06:06:07
(UTC+00:00)
Language:

DSCS II F-15 - Orbit

View from above orbital plane
View from above orbital plane
View from above satellite
View from above satellite

Ground track
Ground track

The orbit data is extracted from the following two-line orbital elements,

1 20202U 89069A   18129.59635315 0.00000000  00000-0  00000-0 0    09
2 20202  15.3427   0.4662 0013606 202.9939 156.9556  0.98604282    04
Epoch (UTC): 09 May 2018 14:18:44
Eccentricity: 0.0013606
inclination: 15.3427°
perigee height: 36202 km
apogee height: 36318 km
right ascension of ascending node: 0.4662°
argument of perigee: 202.9939°
revolutions per day: 0.98604282
mean anomaly at epoch: 156.9556°
orbit number at epoch: 0

The dashed part of the orbit path shows where the satellite is in the earth's shadow,  

DLR